EN

Hourly Weather Dzierznica

Today, 26 October, Monday

Time Temperature Precipitation Wind Pressure Humidity
00:00 +10°C° 0 mm 3 mps 747 mmHg 90%
01:00 +10°C° 0 mm 3 mps 747 mmHg 92%
02:00 +9°C° 0 mm 3 mps 747 mmHg 92%
03:00 +9°C° 0 mm 3 mps 746 mmHg 93%
04:00 +9°C° 0 mm 3 mps 746 mmHg 93%
05:00 +9°C° 0 mm 3 mps 746 mmHg 93%
06:00 +9°C° 0 mm 2 mps 746 mmHg 94%
07:00 +9°C° 0 mm 2 mps 746 mmHg 94%
08:00 +10°C° 0 mm 3 mps 746 mmHg 88%
09:00 +12°C° 0 mm 3 mps 746 mmHg 82%
10:00 +13°C° 0 mm 3 mps 746 mmHg 77%
11:00 +14°C° 0 mm 3 mps 746 mmHg 75%
12:00 +14°C° 0 mm 4 mps 745 mmHg 73%
13:00 +15°C° 0 mm 4 mps 745 mmHg 71%
14:00 +14°C° 0 mm 3 mps 745 mmHg 73%
15:00 +14°C° 0 mm 3 mps 745 mmHg 75%
16:00 +13°C° 0 mm 3 mps 745 mmHg 78%
17:00 +13°C° 0.1 mm 3 mps 745 mmHg 80%
18:00 +13°C° 0.1 mm 3 mps 745 mmHg 82%
19:00 +13°C° 0.1 mm 3 mps 746 mmHg 83%
20:00 +12°C° 0 mm 3 mps 746 mmHg 87%
21:00 +12°C° 0 mm 2 mps 746 mmHg 90%
22:00 +12°C° 0 mm 2 mps 746 mmHg 93%
23:00 +10°C° 0 mm 2 mps 746 mmHg 94%

Tomorrow, 27 October, Tuesday

Time Temperature Precipitation Wind Pressure Humidity
00:00 +10°C° 0 mm 2 mps 746 mmHg 95%
01:00 +10°C° 0 mm 2 mps 746 mmHg 96%
02:00 +9°C° 0 mm 2 mps 746 mmHg 95%
03:00 +9°C° 0 mm 2 mps 746 mmHg 94%
04:00 +10°C° 0 mm 1 mps 746 mmHg 94%
05:00 +10°C° 0.1 mm 1 mps 747 mmHg 93%
06:00 +10°C° 0.1 mm 1 mps 747 mmHg 92%
07:00 +11°C° 0.1 mm 1 mps 747 mmHg 92%
08:00 +11°C° 0.2 mm 1 mps 747 mmHg 92%
09:00 +11°C° 0.2 mm 1 mps 747 mmHg 91%
10:00 +11°C° 0.2 mm 1 mps 747 mmHg 91%
11:00 +11°C° 0.3 mm 1 mps 747 mmHg 91%
12:00 +11°C° 0.3 mm 1 mps 747 mmHg 90%
13:00 +11°C° 0.3 mm 1 mps 747 mmHg 90%
14:00 +11°C° 0.4 mm 1 mps 747 mmHg 91%
15:00 +10°C° 0.4 mm 2 mps 747 mmHg 92%
16:00 +9°C° 0.4 mm 2 mps 747 mmHg 93%
17:00 +9°C° 0.3 mm 2 mps 748 mmHg 93%
18:00 +9°C° 0.3 mm 2 mps 748 mmHg 94%
19:00 +9°C° 0.3 mm 2 mps 748 mmHg 94%
20:00 +9°C° 0.1 mm 2 mps 749 mmHg 94%
21:00 +9°C° 0.1 mm 2 mps 749 mmHg 94%
22:00 +9°C° 0.1 mm 2 mps 749 mmHg 94%
23:00 +8°C° 0 mm 2 mps 750 mmHg 94%

Day after tomorrow, 28 October, Wednesday

Time Temperature Precipitation Wind Pressure Humidity
00:00 +8°C° 0 mm 2 mps 750 mmHg 93%
01:00 +7°C° 0 mm 2 mps 750 mmHg 93%
02:00 +7°C° 0 mm 3 mps 750 mmHg 92%
03:00 +7°C° 0 mm 3 mps 750 mmHg 92%
04:00 +7°C° 0 mm 3 mps 750 mmHg 91%
05:00 +7°C° 0 mm 3 mps 750 mmHg 90%
06:00 +7°C° 0 mm 3 mps 750 mmHg 90%
07:00 +7°C° 0 mm 3 mps 750 mmHg 90%
08:00 +7°C° 0 mm 4 mps 750 mmHg 83%
09:00 +8°C° 0 mm 4 mps 750 mmHg 77%
10:00 +10°C° 0 mm 5 mps 750 mmHg 70%
11:00 +12°C° 0 mm 5 mps 750 mmHg 67%
12:00 +12°C° 0 mm 5 mps 750 mmHg 64%
13:00 +13°C° 0 mm 5 mps 750 mmHg 60%
14:00 +12°C° 0 mm 4 mps 750 mmHg 64%
15:00 +12°C° 0 mm 4 mps 750 mmHg 67%
16:00 +11°C° 0 mm 3 mps 750 mmHg 71%
17:00 +11°C° 0 mm 3 mps 750 mmHg 72%
18:00 +10°C° 0 mm 3 mps 750 mmHg 72%
19:00 +10°C° 0 mm 4 mps 750 mmHg 73%
20:00 +10°C° 0 mm 3 mps 750 mmHg 75%
21:00 +9°C° 0 mm 3 mps 750 mmHg 77%
22:00 +8°C° 0 mm 3 mps 751 mmHg 79%
23:00 +8°C° 0 mm 3 mps 750 mmHg 80%

29 October, Thursday

Time Temperature Precipitation Wind Pressure Humidity
00:00 +8°C° 0 mm 3 mps 750 mmHg 80%
01:00 +8°C° 0 mm 3 mps 750 mmHg 81%
02:00 +7°C° 0 mm 4 mps 750 mmHg 81%
03:00 +7°C° 0 mm 4 mps 750 mmHg 82%
04:00 +7°C° 0 mm 4 mps 750 mmHg 83%
05:00 +7°C° 0 mm 4 mps 750 mmHg 82%
06:00 +8°C° 0 mm 4 mps 750 mmHg 81%
07:00 +8°C° 0 mm 4 mps 750 mmHg 80%
08:00 +9°C° 0 mm 5 mps 750 mmHg 76%
09:00 +11°C° 0 mm 6 mps 751 mmHg 72%
10:00 +12°C° 0 mm 8 mps 751 mmHg 68%
11:00 +12°C° 0.1 mm 8 mps 751 mmHg 65%
12:00 +12°C° 0.1 mm 7 mps 751 mmHg 62%
13:00 +14°C° 0.1 mm 7 mps 751 mmHg 60%
14:00 +13°C° 0 mm 6 mps 752 mmHg 63%
15:00 +12°C° 0 mm 5 mps 752 mmHg 66%
16:00 +11°C° 0 mm 4 mps 752 mmHg 69%
17:00 +11°C° 0 mm 4 mps 753 mmHg 72%
18:00 +10°C° 0 mm 3 mps 753 mmHg 76%
19:00 +9°C° 0 mm 3 mps 753 mmHg 79%
20:00 +9°C° 0 mm 3 mps 754 mmHg 81%
21:00 +9°C° 0 mm 3 mps 754 mmHg 82%
22:00 +7°C° 0 mm 4 mps 754 mmHg 83%
23:00 +7°C° 0 mm 4 mps 754 mmHg 82%

30 October, Friday

Time Temperature Precipitation Wind Pressure Humidity
00:00 +7°C° 0 mm 4 mps 754 mmHg 82%
01:00 +7°C° 0 mm 4 mps 754 mmHg 81%
02:00 +8°C° 0 mm 5 mps 754 mmHg 81%
03:00 +8°C° 0 mm 5 mps 754 mmHg 81%
04:00 +8°C° 0 mm 5 mps 753 mmHg 80%
05:00 +8°C° 0 mm 5 mps 753 mmHg 80%
06:00 +9°C° 0 mm 5 mps 753 mmHg 80%
07:00 +9°C° 0 mm 5 mps 754 mmHg 80%
08:00 +10°C° 0 mm 6 mps 754 mmHg 79%
09:00 +11°C° 0 mm 6 mps 754 mmHg 77%
10:00 +13°C° 0 mm 6 mps 754 mmHg 76%
11:00 +13°C° 0 mm 6 mps 754 mmHg 74%
12:00 +14°C° 0 mm 6 mps 754 mmHg 72%
13:00 +15°C° 0 mm 6 mps 754 mmHg 71%
14:00 +14°C° 0 mm 5 mps 754 mmHg 73%
15:00 +14°C° 0 mm 5 mps 754 mmHg 74%
16:00 +13°C° 0 mm 4 mps 754 mmHg 76%
17:00 +13°C° 0 mm 4 mps 754 mmHg 79%
18:00 +12°C° 0 mm 4 mps 755 mmHg 81%
19:00 +12°C° 0 mm 4 mps 755 mmHg 83%
20:00 +12°C° 0 mm 4 mps 755 mmHg 84%
21:00 +11°C° 0 mm 3 mps 755 mmHg 85%
22:00 +11°C° 0 mm 3 mps 755 mmHg 87%
23:00 +11°C° 0 mm 3 mps 755 mmHg 88%

31 October, Saturday

Time Temperature Precipitation Wind Pressure Humidity
00:00 +10°C° 0 mm 3 mps 755 mmHg 88%
01:00 +10°C° 0 mm 3 mps 755 mmHg 89%
02:00 +9°C° 0 mm 3 mps 755 mmHg 89%
03:00 +9°C° 0 mm 3 mps 755 mmHg 89%
04:00 +9°C° 0 mm 3 mps 755 mmHg 90%
05:00 +9°C° 0 mm 3 mps 755 mmHg 89%
06:00 +9°C° 0 mm 3 mps 755 mmHg 88%
07:00 +9°C° 0 mm 3 mps 755 mmHg 88%
Show more